2 Line ISS Keps 10-2
2 Oct
2007
2 Oct
'07
1:22 p.m.
ISS 1 25544U 98067A 07275.28321002 .00008769 00000-0 60944-4 0 874 2 25544 051.6344 271.4043 0002944 058.8628 062.7891 15.75349654507679
6291
Age (days ago)
6291
Last active (days ago)
0 comments
1 participants
participants (1)
-
Dave Larsen PhD